Location: Rayville (historical)
(39.9992°N, 99.6815°W)
Time: 18:29:37
(UTC+00:00)

CSL-04 Rocket - Pass Details

Date: 18 February 2020
Orbit: 805 x 861 km, 99.0° (Epoch: 28 March)

Event Time Altitude Azimuth Distance (km) Brightness Sun altitude
Rises 01:23:50 0° 167° (SSE) 3,422 6.8 -13.5°
Reaches altitude 10° 01:26:12 10° 168° (SSE) 2,489 6.1 -14.0°
Maximum altitude 01:31:45 81° 256° (WSW) 873 3.8 -15.0°
Drops below altitude 10° 01:37:18 10° 344° (NNW) 2,489 6.3 -16.1°
Sets 01:39:41 0° 346° (NNW) 3,422 7.0 -16.5°
